Central Sonoma County Latest

22 Stations

15 Minute Data | America/Los_Angeles
as of 11/16/19 9:54 PM PST
Station Date Time Temp (°F) RH (%) Dew Pt (°F) Wind Spd (mph) Wind Dir (°) Wind Gust (mph) Latest Rain (In) Daily Rain (In) Daily Min Temp (°F) Daily Max Temp (°F)
Healdsburg - S (Sodini) 11/16/19 2145 48.5   0.0 90   4 45.7   1.2 0.0 N | 0 0.0   0.0 0.00 0.01 39.5   4.0 76.4   3.6
Ranch 8 (Windsor-NW) 11/16/19 2145 53.2   2.2 88   3 49.8   1.4 0.5 E | 99 1.8   0.0 0.00 0.00 41.8   3.9 76.1   1.7
Foothill Ranch 16 11/16/19 2145 47.0   0.7 92   4 44.6   1.9 0.0 N | 0 0.0   1.7 0.00 0.00 39.7   4.2 74.6   1.2
Airport Ranch 14 11/16/19 2145 48.2   2.8 94   4 46.4   4.0 0.0 N | 0 0.0   1.5 0.00 0.00 43.1   2.3 73.5   0.1
Silk Road 11/16/19 2145 43.7   5.1 97   3 42.8   6.0 0.0 SE | 146 0.4   1.3 0.00 0.00 40.8   0.0 74.1   1.0
Oak Meadows Ranch 5 11/16/19 2145 46.8   2.5 98   2 46.2   3.0 0.0 N | 0 0.0   1.2 0.00 0.00 42.8   0.9 72.8   1.2
Laughlin Rd (Windsor-South) 11/16/19 2145 48.5   2.3 95   5 47.0   3.7 - - - 0.00 0.00 41.6   2.4 73.5   1.1
Barnes Rd (SE Fulton) 11/16/19 2145 47.6   3.4 92   5 45.4   4.7 0.1 NE | 38 0.8   1.3 0.00 0.01 41.8   2.4 71.9   0.9
Crinella Ranch 21 11/16/19 2145 46.7   4.8 90   10 44.0   7.4 1.0 S | 184 1.5   3.0 0.00 0.01 41.6   2.7 72.5   0.3
Denner Ranch Base 11/16/19 2145 47.2   4.0 96   4 46.0   5.1 0.7 SSE | 147 1.8   3.1 0.00 0.01 41.7   2.7 73.9   1.9
Guerneville Road (Santa Rosa Plains) 11/16/19 2145 43.2   8.3 92   6 41.2   9.8 0.1 ENE | 77 1.0   1.8 0.00 0.01 43.0   1.6 72.6   2.4
Rich Ranch (Guerneville Rd) 11/16/19 2145 45.5   6.8 96   4 44.5   7.8 - - - - - 43.1   1.7 73.3   0.3
Occidental Rd (Sebastopol) 11/16/19 2145 44.5   7.0 88   12 41.1   10.5 0.0 SSE | 150 1.3   1.8 0.00 0.01 41.7   3.7 73.1   1.4
Garrison Ranch 12 11/16/19 2145 46.3   0.5 93   4 44.5   0.7 0.0 N | 0 0.0   0.0 0.00 0.00 38.4   2.3 76.0   1.8
Laughlin Rd (Guerneville) 11/16/19 2145 44.6   5.7 97   3 43.7   6.5 0.0 N | 0 0.0   1.5 0.00 0.00 44.1   0.4 75.6   5.0
Korbel Winery 11/16/19 2145 48.4   1.9 98   2 47.9   2.3 0.1 WSW | 247 1.0   0.5 0.00 0.01 46.8   0.4 76.9   6.0
Shone Farms (Forestville) 11/16/19 2145 50.0   0.2 90   6 47.1   1.7 0.2 SW | 225 1.0   0.5 0.00 0.00 42.6   1.4 74.4   1.8
Ranch 30 (Forestville-NE) 11/16/19 2145 47.7   0.5 96   1 46.7   0.6 0.6 SE | 142 1.9   1.5 0.00 0.00 43.1   1.4 75.0   0.8
Dutton Ranch (Graton-West) 11/16/19 2145 45.5   0.8 100   0 45.5   0.8 0.6 S | 190 1.4   0.0 0.00 0.00 37.6   4.2 76.1   3.0
Mill Station Rd (Graton-South) 11/16/19 2145 45.2   0.0 96   1 44.1   0.2 0.0 N | 0 0.0   1.6 0.00 0.00 38.3   3.2 72.4   2.5
Burnside Road (Sebastopol Hills) 11/16/19 2145 54.5   2.7 87   12 50.6   0.9 0.2 NNW | 327 1.1   0.7 0.00 0.00 46.0   1.1 71.0   3.5
Hirsch Vineyards 11/16/19 2145 66.5   13.7 43   54 43.1   8.9 2.9 NE | 51 4.2   0.1 0.00 0.00 51.4   5.1 71.6   15.3
Max     66.5 100 50.6 2.9 - 4.2 0.00 0.01 51.4 76.9
Avg     48.1 91 45.4 0.4 - 0.9 0.00 - - -
Min     43.2 43 41.1 0.0 - 0.0 0.00 0.00 37.6 71.0